This is the latest recevied weather packets stored in our database for station/object KB1FPD. If no packets are shown the sender has not sent any weather packets the latest 10 day(s).
| Time | Temp. | Humidity | Pressure | Rain* | Wind** | Luminosity | Snow |
|---|---|---|---|---|---|---|---|
| 1777914538 | 20° C | 50% | 1012.4 hPa | 0 mm | - | - | - |
| 1777914237 | 20° C | 51% | 1012.4 hPa | 0 mm | - | - | - |
| 1777913934 | 20° C | 49% | 1012.4 hPa | 0 mm | - | - | - |
| 1777913636 | 19.44° C | 52% | 1012.5 hPa | 0 mm | - | - | - |
| 1777913334 | 19.44° C | 53% | 1012.6 hPa | 0 mm | - | - | - |
| 1777913035 | 19.44° C | 54% | 1012.5 hPa | 0 mm | - | - | - |
| 1777912734 | 19.44° C | 54% | 1012.6 hPa | 0 mm | - | - | - |
| 1777912434 | 19.44° C | 55% | 1012.7 hPa | 0 mm | - | - | - |
| 1777912134 | 19.44° C | 53% | 1012.7 hPa | 0 mm | - | - | - |
| 1777911836 | 18.89° C | 55% | 1012.8 hPa | 0 mm | - | - | - |
| 1777911534 | 18.89° C | 50% | 1013.1 hPa | 0 mm | - | - | - |
| 1777911235 | 18.33° C | 55% | 1013.2 hPa | 0 mm | - | - | - |
| 1777910934 | 18.33° C | 54% | 1013.4 hPa | 0 mm | - | - | - |
| 1777910634 | 18.33° C | 50% | 1013.4 hPa | 0 mm | - | - | - |
| 1777910332 | 18.33° C | 55% | 1013.4 hPa | 0 mm | - | - | - |
| 1777910033 | 18.33° C | 52% | 1013.4 hPa | 0 mm | - | - | - |
| 1777909732 | 18.33° C | 54% | 1013.4 hPa | 0 mm | - | - | - |
| 1777909432 | 18.33° C | 53% | 1013.5 hPa | 0 mm | - | - | - |
| 1777909131 | 18.33° C | 53% | 1013.5 hPa | 0 mm | - | - | - |
| 1777908831 | 17.78° C | 51% | 1013.7 hPa | 0 mm | - | - | - |
| 1777908533 | 17.78° C | 52% | 1013.7 hPa | 0 mm | - | - | - |
| 1777908231 | 17.78° C | 54% | 1013.7 hPa | 0 mm | - | - | - |
| 1777907930 | 17.22° C | 51% | 1013.7 hPa | 0 mm | - | - | - |
| 1777907631 | 17.22° C | 57% | 1013.9 hPa | 0 mm | - | - | - |
| 1777907329 | 17.22° C | 53% | 1013.9 hPa | 0 mm | - | - | - |
* Rain latest hour (hover to see other rain measurements)
** Current wind speed in m/s (hover to see current wind gust speed)